Weather History for Princeton, BC

Change the Weather History Date:

Wednesday, April 3, 2013

  Actual Average Record
Temperature  
Mean Temperature 49 °F -  
Max Temperature 64 °F - - ()
Min Temperature 34 °F - - ()
Degree Days  
Heating Degree Days 16    
Moisture  
Dew Point 32 °F    
Average Humidity 57    
Maximum Humidity 89    
Minimum Humidity 18    
Precipitation  
Precipitation 0.00 in - - ()
Sea Level Pressure  
Sea Level Pressure 30.09 in    
Wind  
Wind Speed 1 mph ()    
Max Wind Speed 7 mph    
Max Gust Speed -    
T = Trace of Precipitation, MM = Missing Value Source: Averaged Metar Reports

Daily Weather History Graph

Daily Weather History Graph

Search for Another Location

Airport:

Trip Planner

Search our weather history database for the weather conditions in past years. The results will help you decide how hot, cold, wet, or windy it might be!

Date:

Astronomy

Apr. 03, 2013 Rise Set
Actual Time 6:34 AM PDT 7:37 PM PDT
Civil Twilight 6:01 AM PDT 8:09 PM PDT
Nautical Twilight 5:22 AM PDT 8:49 PM PDT
Astronomical Twilight 4:40 AM PDT 9:31 PM PDT
Moon 2:54 AM PDT (4/3) 12:21 PM PDT (4/3)
Length of Visible Light 14h 08m
Length of Day
13h 03m
Last Quarter, 43% of the Moon is Illuminated
Apr 3
Last Quarter
Apr 10
New
Apr 18
First Quarter
Apr 25
Full
May 2
Last Quarter

Hourly Weather History & Observations

Time (PDT) Temp. Dew Point Humidity Pressure Visibility Wind Dir Wind Speed Gust Speed Precip Events Conditions
12:00 AM 39.9 °F 33.1 °F 77% 30.12 in - Calm Calm - N/A   Unknown
1:00 AM 38.5 °F 31.6 °F 76% 30.13 in - Calm Calm - N/A   Unknown
2:00 AM 35.1 °F 30.6 °F 84% 30.15 in - NW 2.3 mph - N/A   Unknown
3:00 AM 36.5 °F 31.6 °F 83% 30.16 in - Calm Calm - N/A   Unknown
4:00 AM 36.1 °F 31.5 °F 83% 30.16 in - Calm Calm - N/A   Unknown
5:00 AM 35 °F 31 °F 81% 30.16 in - ENE 1.2 mph - -  
5:00 AM 34.7 °F 31.3 °F 87% 30.16 in - ENE 1.2 mph - N/A   Unknown
6:00 AM 35.2 °F 31.8 °F 87% 30.17 in - Calm Calm - N/A   Unknown
7:00 AM 34.2 °F 31.1 °F 89% 30.18 in - Calm Calm - N/A   Unknown
8:00 AM 37.4 °F 33.1 °F 84% 30.19 in - Calm Calm - N/A   Unknown
9:00 AM 42.4 °F 34.0 °F 72% 30.17 in - Calm Calm - N/A   Unknown
10:00 AM 47.7 °F 35.6 °F 63% 30.16 in - SSE 1.2 mph - N/A   Unknown
11:00 AM 52 °F 33 °F 37% 30.13 in - Calm Calm - -  
11:00 AM 51.8 °F 33.3 °F 49% 30.13 in - Calm Calm - N/A   Unknown
12:00 PM 55.0 °F 31.8 °F 41% 30.09 in - SSW 2.3 mph - N/A   Unknown
1:00 PM 57.4 °F 31.5 °F 37% 30.07 in - ENE 4.6 mph - N/A   Unknown
2:00 PM 60.3 °F 28.2 °F 30% 30.04 in - East 3.5 mph - N/A   Unknown
3:00 PM 62.1 °F 30.4 °F 30% 30.03 in - Calm Calm - N/A   Unknown
4:00 PM 63.0 °F 30.9 °F 30% 30.01 in - South 3.5 mph - N/A   Unknown
5:00 PM 63 °F 30 °F 18% 30.00 in - WNW 6.9 mph - -  
5:00 PM 63.0 °F 30.4 °F 29% 30.00 in - WNW 6.9 mph - N/A   Unknown
6:00 PM 60.8 °F 30.2 °F 31% 30.00 in - WNW 5.8 mph - N/A   Unknown
7:00 PM 58.3 °F 31.3 °F 36% 30.00 in - Calm Calm - N/A   Unknown
8:00 PM 54.3 °F 31.5 °F 42% 29.99 in - Calm Calm - N/A   Unknown
9:00 PM 50.0 °F 34.5 °F 55% 30.01 in - WNW 3.5 mph - N/A   Unknown
10:00 PM 46.6 °F 34.3 °F 62% 30.01 in - NW 1.2 mph - N/A   Unknown
11:00 PM 47 °F 34 °F 49% 30.01 in - NNW 2.3 mph - -  
11:00 PM 46.8 °F 34.0 °F 61% 30.01 in - NNW 2.3 mph - N/A   Unknown